FW2422 Weather Reports


Display with metric or nautical units.
time (UTC)temp
F
wind
direction
speed
MPH
gust
MPH
rain 1hr
in
rain 24hr
in
rain mn
in
humidity
%
barometer
mb
20260510214553 69 37 0.0 8.0 0.00 0.15 0.15 80 1017.0
20260510204519 73 65 0.0 5.0 0.00 0.15 0.15 73 1016.3
20260510203019 74 4 0.0 5.0 0.00 0.15 0.15 72 1016.3
20260510201522 75 85 0.0 4.0 0.00 0.15 0.15 74 1016.3
20260510200011 73 75 0.0 7.0 0.00 0.15 0.15 78 1016.1
20260510194512 71 72 3.0 8.0 0.00 0.15 0.15 78 1016.3
20260510183059 65 97 1.0 5.0 0.15 0.15 0.15 93 1016.7
20260510181557 64 114 0.0 7.0 0.15 0.15 0.15 92 1016.2
20260510180053 64 151 1.0 8.0 0.14 0.14 0.14 91 1016.0
20260510174551 64 153 0.0 8.0 0.07 0.07 0.07 89 1016.7
20260510173046 67 136 0.0 12.0 0.00 0.00 0.00 82 1017.0
20260510171548 72 23 3.0 15.0 0.00 0.00 0.00 68 1016.6
20260510170042 80 148 0.0 6.0 0.00 0.00 0.00 64 1015.4
20260510164540 81 86 0.0 5.0 0.00 0.00 0.00 63 1014.8
20260510163040 81 129 2.0 12.0 0.00 0.00 0.00 60 1014.3
20260510161537 81 124 3.0 12.0 0.00 0.00 0.00 61 1013.9
20260510160037 80 215 1.0 9.0 0.00 0.00 0.00 60 1013.2
20260510154535 79 123 3.0 10.0 0.00 0.00 0.00 60 1013.4
20260510153029 79 191 2.0 11.0 0.00 0.00 0.00 61 1013.4
20260510151524 77 229 2.0 6.0 0.00 0.00 0.00 64 1013.1
20260510150024 75 203 2.0 9.0 0.00 0.00 0.00 66 1013.0
20260510144526 74 148 3.0 9.0 0.00 0.00 0.00 68 1013.4
20260510143028 72 218 2.0 11.0 0.00 0.00 0.00 71 1013.6
20260510141520 70 118 1.0 5.0 0.00 0.00 0.00 75 1013.9
20260510140018 68 124 1.0 5.0 0.00 0.00 0.00 78 1014.7
20260510134521 67 75 1.0 6.0 0.00 0.00 0.00 80 1014.9
20260510123034 66 77 0.0 5.0 0.00 0.00 0.00 85 1014.0
20260510121530 0 0.0 0.0 0.00 0.00 0.00 1014.0
20260510120025 0 0.0 0.0 0.00 0.00 0.00 1013.8
20260510114522 0 0.0 0.0 0.00 0.00 0.00 1013.6
20260510113017 0 0.0 0.0 0.00 0.00 0.00 1013.5
20260510111512 0 0.0 0.0 0.00 0.00 0.00 1013.4
20260510110028 0 0.0 0.0 0.00 0.00 0.00 1013.2
20260510104504 0 0.0 0.0 0.00 0.00 0.00 1013.1
20260510103105 0 0.0 0.0 0.00 0.00 0.00 1013.2
20260510101555 67 123 2.0 12.0 0.00 0.00 0.00 83 1012.9
20260510100054 69 58 3.0 17.0 0.00 0.00 0.00 78 1013.1
20260510094546 71 347 5.0 18.0 0.00 0.00 0.00 73 1013.5
20260510093059 74 296 3.0 15.0 0.00 0.00 0.00 86 1013.4
20260510091540 74 69 0.0 4.0 0.00 0.00 0.00 87 1012.6
20260510090050 74 34 0.0 4.0 0.00 0.00 0.00 86 1011.8
20260510084534 74 82 0.0 4.0 0.00 0.00 0.00 85 1011.1
20260510083032 73 37 0.0 3.0 0.00 0.00 0.00 85 1011.2
20260510081532 74 83 0.0 1.0 0.00 0.00 0.00 84 1010.5
20260510080030 74 92 0.0 2.0 0.00 0.00 0.00 83 1010.2
20260510074506 74 107 0.0 0.0 0.00 0.00 0.00 81 1010.0
20260510063056 74 141 0.0 0.0 0.00 0.00 0.00 79 1010.7
20260510061555 75 142 0.0 4.0 0.00 0.00 0.00 78 1009.6
20260510060050 75 203 1.0 7.0 0.00 0.00 0.00 77 1009.1
20260510054546 75 148 1.0 5.0 0.00 0.00 0.00 76 1009.0
20260510044503 76 86 0.0 4.0 0.00 0.00 0.00 73 1008.4
20260510043003 77 94 0.0 4.0 0.00 0.00 0.00 69 1008.6
20260510041502 77 103 0.0 2.0 0.00 0.00 0.00 67 1008.8
20260510040002 77 93 0.0 0.0 0.00 0.00 0.00 68 1008.8
20260510034555 77 106 0.0 0.0 0.00 0.00 0.00 68 1008.7
20260510024546 79 69 1.0 4.0 0.00 0.00 0.00 63 1008.6
20260510023050 79 75 0.0 3.0 0.00 0.00 0.00 62 1008.5
20260510021546 80 97 0.0 3.0 0.00 0.00 0.00 61 1008.6
20260510020046 81 79 1.0 5.0 0.00 0.00 0.00 60 1008.4
20260510014545 81 105 0.0 4.0 0.00 0.00 0.00 57 1008.2
20260510013042 82 82 0.0 4.0 0.00 0.00 0.00 55 1007.9
20260510011542 83 57 1.0 4.0 0.00 0.00 0.00 52 1007.7
20260510010043 84 86 0.0 4.0 0.00 0.00 0.00 49 1007.6
20260510004540 84 77 0.0 3.0 0.00 0.00 0.00 48 1007.6
20260510003040 85 89 1.0 5.0 0.00 0.00 0.00 46 1007.5
20260510001539 85 43 0.0 2.0 0.00 0.00 0.00 47 1007.5
20260510000039 86 6 1.0 4.0 0.00 0.00 0.00 47 1007.4
20260509234538 87 60 1.0 5.0 0.00 0.00 0.00 46 1007.4
20260509233038 88 53 0.0 5.0 0.00 0.00 0.00 47 1007.5
20260509231539 88 81 0.0 5.0 0.00 0.00 0.00 46 1007.5
20260509230037 88 71 1.0 6.0 0.00 0.00 0.00 45 1007.5
20260509224539 89 83 0.0 6.0 0.00 0.00 0.00 44 1007.4
20260509223035 88 105 0.0 7.0 0.00 0.00 0.00 44 1007.3
20260509221534 89 94 0.0 6.0 0.00 0.00 0.00 43 1007.3
20260509220034 89 70 0.0 3.0 0.00 0.00 0.00 44 1007.4